METEOR-M 1

Last updated on Wed Jun 28 2023 00:02:25 GMT+0000 (Coordinated Universal Time)

1 35865U 09049A 23178.46628214 .00000184 00000+0 10184-3 0 9992 2 35865 98.5806 142.9688 0001789 184.6733 175.4428 14.22509978714998

Satellite not in orbit

METEOR-M 1